Regional Weather Roundup
Issued by NWS

Home | Current Version | Previous Version | Text Only | Print | Product List | Glossary Off
Versions: 1 2 3 4 5 6 7 8 9 10 11 12 13 14 15 16 17 18 19 20 21 22 23 24 25 26 27 28 29 30 31 32 33 34 35 36 37 38 39 40 41 42 43 44 45 46 47 48 49 50

000
ASUS45 KPSR 022000
RWRAZ

ARIZONA HOURLY REGIONAL WEATHER ROUNDUP
NATIONAL WEATHER SERVICE PHOENIX AZ
100 PM MST THU JUL 02 2015

NOTE: FAIR INDICATES FEW OR NO CLOUDS BELOW 12,000 FEET WITH NO
SIGNIFICANT WEATHER AND/OR OBSTRUCTIONS TO VISIBILITY.

AZZ001>003-036-022100-
NORTHWEST ARIZONA

CITY           SKY/WX    TMP DP  RH WIND       PRES   REMARKS
KINGMAN        SUNNY     95  52  23 S9        30.05F
$$

AZZ004>008-015-016-018-022100-
NORTH CENTRAL ARIZONA

CITY           SKY/WX    TMP DP  RH WIND       PRES   REMARKS
GRAND CANYON   SUNNY     81  51  35 S9G21     30.28F
WILLIAMS       SUNNY     81  55  41 W9        30.35F
PRESCOTT       MOSUNNY   87  54  32 VRB5      30.16
FLAGSTAFF      NOT AVBL
PAYSON         MOSUNNY   90  54  29 SW14      30.17F
PAGE           SUNNY     97  50  20 N7        30.04F
$$

AZZ009>014-017-022100-
NORTHEAST ARIZONA

CITY           SKY/WX    TMP DP  RH WIND       PRES   REMARKS
WINSLOW        NOT AVBL
SAINT JOHNS    SUNNY     81  55  40 MISG      30.18F
WINDOW ROCK    MOSUNNY   89  49  25 W8        30.23
SHOW LOW       SUNNY     82  46  28 NW10      30.24F
$$

AZZ023-022100-
GREATER PHOENIX AREA

CITY           SKY/WX    TMP DP  RH WIND       PRES   REMARKS
PHOENIX        MOSUNNY  101  58  24 W8        29.86F HX 100
GLENDALE       MOSUNNY  102  61  25 S14G20    29.88F HX 103
LUKE AFB       MOSUNNY  100  61  27 SW16      29.86F HX 101
DEER VALLEY    SUNNY     99  57  24 VRB7G17   29.88F
SCOTTSDALE     SUNNY     99  57  24 CALM      29.90F
MESA-FALCON    MOSUNNY   99  57  25 SW17      29.89F
MESA-GATEWAY   MOSUNNY   99  59  26 W7G18     29.91F
CHANDLER       MOSUNNY   99  57  25 SW12      29.88F
$$

AZZ027-028-022100-
SOUTHWEST MARICOPA COUNTY AND PINAL COUNTY

CITY           SKY/WX    TMP DP  RH WIND       PRES   REMARKS
CASA GRANDE    SUNNY     99  59  26 W9        29.90F
$$

AZZ503-504-507>509-022100-
SOUTHEAST ARIZONA

CITY           SKY/WX    TMP DP  RH WIND       PRES   REMARKS
TUCSON         SUNNY     97  57  26 N12       29.99F
DAVIS-MONTHAN  MOSUNNY   94  58  29 VRB6      29.97F
RYAN FIELD     SUNNY     97  61  30 NW6       29.98F
NOGALES        SUNNY     90  58  33 NW9       30.08F
SIERRA VISTA   SUNNY     88  57  34 W8        30.13F
SAFFORD        SUNNY    101  52  19 N12G20    29.92F
$$

AZZ020-021-025-026-031-022100-
SOUTHWEST ARIZONA

CITY           SKY/WX    TMP DP  RH WIND       PRES   REMARKS
YUMA           MOSUNNY  101  65  30 W5        29.85F HX 104
$$

CAZ031-033-041-043-047-048-061-022100-
SOUTHERN CALIFORNIA

CITY           SKY/WX    TMP DP  RH WIND       PRES   REMARKS
DOWNTOWN L.A.  SUNNY     82  63  52 CALM      29.97F
L.A. AIRPORT   MOSUNNY   75  63  66 W9        29.99F
SAN DIEGO      MOSUNNY   77  64  64 W10       29.99F
BURBANK        SUNNY     85  56  37 S9        29.97F
ONTARIO        MOSUNNY   89  52  28 W9        29.97F
RIVERSIDE      MOSUNNY   91  50  24 VRB6      29.97F
PALM SPRINGS   MOSUNNY  104  60  23 VRB6      29.86F HX 105
EL CENTRO NAS  MOSUNNY  102  56  21 VRB7      29.83F HX 101
IMPERIAL       SUNNY    101  63  28 VRB5      29.81F HX 103
BLYTHE         SUNNY    101  63  28 VRB5      29.84F HX 103
$$

NVZ020-UTZ003-022100-
SOUTHERN NEVADA-UTAH

CITY           SKY/WX    TMP DP  RH WIND       PRES   REMARKS
LAS VEGAS      NOT AVBL
SALT LAKE CITY MOSUNNY   95  48  20 NW8       30.05F
$$

NMZ009-TXZ055-022100-
NEW MEXICO-WEST TEXAS

CITY           SKY/WX    TMP DP  RH WIND       PRES   REMARKS
ALBUQUERQUE    MOSUNNY   91  47  21 CALM      30.08F
EL PASO        MOSUNNY   97  50  20 VRB3      29.97F
$$


........................KEY........................
SKY/WX - SKY CONDITION/WEATHER
TMP    - TEMPERATURE IN FAHRENHEIT
DP     - DEW POINT IN FAHRENHEIT
RH     - RELATIVE HUMIDITY IN PERCENT
WIND   - DIRECTION AND SPEED IN MILES PER HOUR (MPH)
VRB    - VARIABLE WIND DIRECTION
PRES   - MEAN SEA LEVEL PRESSURE IN INCHES OF MERCURY
         F - FALLING PRESSURE   R - RISING PRESSURE
         S - STEADY PRESSURE
VSB    - VISIBILITY IN MILES
HX     - HEAT INDEX IN FAHRENHEIT
WCI    - WIND CHILL INDEX IN FAHRENHEIT
TC     - TEMPERATURE IN CELSIUS WHICH IS ALSO KNOWN AS
         TEMPERATURE IN CENTIGRADE
AFB    - AIR FORCE BASE
         LUKE AFB IS LUKE AIR FORCE BASE
         DAVIS-MONTHAN IS DAVIS-MONTHAN AIR FORCE BASE
NAS    - NAVAL AIR STATION
         EL CENTRO NAS IS EL CENTRO NAVAL AIR STATION
N/A    - NOT AVAILABLE



USA.gov is the U.S. government's official web portal to all federal, state and local government web resources and services.